QPF
0.02 0.02 0.02 0.01 0.01 0.01 0.02 0.02 0.01 0.01 0.01 0.02 0.05 0.06 0.07 0.07 0.09 0.10 0.10 0.11 0.11 0.11 0.12 0.11 0.11 0.10 0.08 0.08 0.10 0.13 0.13 0.10 0.07 0.06 0.06 0.05 0.04 0.03 0.03 0.04 0.03 0.03 0.03
0.01 0.02 0.02 0.01 0.01 0.01 0.01 0.02 0.02 0.02 0.02 0.02 0.03 0.05 0.06 0.07 0.08 0.10 0.11 0.11 0.11 0.12 0.12 0.13 0.11 0.12 0.10 0.07 0.06 0.09 0.12 0.12 0.08 0.07 0.07 0.07 0.06 0.04 0.03 0.04 0.04 0.03 0.02
0.01 0.01 0.02 0.02 0.01 0.01 0.01 0.01 0.01 0.02 0.02 0.03 0.03 0.04 0.06 0.07 0.08 0.09 0.09 0.10 0.10 0.11 0.13 0.12 0.11 0.11 0.12 0.10 0.06 0.06 0.07 0.09 0.09 0.08 0.08 0.07 0.06 0.04 0.04 0.03 0.03 0.03 0.02
0.01 0.02 0.02 0.02 0.02 0.02 0.02 0.02 0.01 0.02 0.03 0.03 0.03 0.04 0.04 0.06 0.07 0.06 0.06 0.06 0.07 0.08 0.12 0.13 0.12 0.11 0.12 0.12 0.10 0.08 0.06 0.06 0.07 0.08 0.08 0.08 0.05 0.03 0.03 0.03 0.03 0.03 0.03
0.02 0.02 0.02 0.02 0.02 0.02 0.02 0.02 0.02 0.02 0.02 0.03 0.03 0.04 0.04 0.05 0.07 0.07 0.05 0.05 0.05 0.06 0.09 0.12 0.14 0.14 0.13 0.14 0.11 0.10 0.10 0.08 0.07 0.07 0.07 0.07 0.06 0.04 0.02 0.02 0.02 0.03 0.03
0.01 0.01 0.01 0.01 0.02 0.02 0.02 0.03 0.03 0.03 0.03 0.03 0.03 0.04 0.05 0.04 0.05 0.07 0.07 0.06 0.06 0.05 0.05 0.09 0.14 0.16 0.16 0.16 0.17 0.12 0.08 0.09 0.09 0.08 0.07 0.07 0.07 0.05 0.03 0.02 0.02 0.02 0.03
0.01 0.01 0.01 0.01 0.01 0.01 0.02 0.02 0.03 0.03 0.03 0.03 0.03 0.04 0.05 0.05 0.04 0.06 0.07 0.07 0.07 0.05 0.04 0.06 0.09 0.13 0.18 0.18 0.19 0.18 0.14 0.08 0.07 0.08 0.08 0.07 0.07 0.08 0.07 0.04 0.03 0.03 0.03
0.01 0.01 0.01 0.01 0.01 0.01 0.01 0.01 0.02 0.03 0.03 0.02 0.03 0.03 0.05 0.05 0.05 0.05 0.06 0.08 0.07 0.05 0.04 0.04 0.06 0.09 0.12 0.15 0.18 0.19 0.18 0.15 0.10 0.07 0.07 0.07 0.07 0.06 0.07 0.06 0.05 0.04 0.04
0.01 0.01 0.01 0.01 0.01 0.01 0.01 0.01 0.01 0.03 0.03 0.02 0.02 0.02 0.03 0.04 0.05 0.05 0.06 0.07 0.08 0.06 0.04 0.04 0.05 0.07 0.09 0.11 0.13 0.16 0.17 0.16 0.14 0.10 0.08 0.07 0.07 0.07 0.06 0.06 0.05 0.05 0.05
0.01 0.01 0.01 0.01 0.01 0.01 0.01 0.01 0.01 0.02 0.02 0.02 0.02 0.02 0.03 0.04 0.04 0.05 0.06 0.07 0.08 0.06 0.05 0.04 0.04 0.05 0.07 0.07 0.09 0.11 0.12 0.14 0.15 0.13 0.10 0.09 0.08 0.08 0.07 0.06 0.06 0.06 0.06
0.01 0.01 0.01 0.01 0.01 0.01 0.01 0.01 0.01 0.01 0.02 0.02 0.02 0.02 0.03 0.04 0.05 0.05 0.05 0.06 0.06 0.06 0.05 0.05 0.04 0.04 0.04 0.05 0.06 0.07 0.09 0.11 0.11 0.12 0.11 0.09 0.08 0.07 0.07 0.07 0.07 0.07 0.07
0.00 0.00 0.01 0.01 0.01 0.01 0.01 0.01 0.01 0.01 0.02 0.02 0.02 0.02 0.02 0.03 0.04 0.05 0.05 0.05 0.05 0.05 0.05 0.05 0.05 0.04 0.03 0.04 0.05 0.05 0.06 0.08 0.10 0.09 0.09 0.09 0.08 0.06 0.06 0.06 0.07 0.07 0.07
0.00 0.00 0.00 0.00 0.00 0.00 0.00 0.01 0.01 0.01 0.02 0.02 0.02 0.02 0.02 0.02 0.02 0.03 0.04 0.05 0.05 0.05 0.05 0.04 0.05 0.04 0.03 0.03 0.03 0.04 0.04 0.05 0.06 0.08 0.08 0.08 0.08 0.07 0.06 0.06 0.06 0.06 0.06
0.00 0.00 0.00 0.00 0.00 0.00 0.00 0.00 0.00 0.00 0.01 0.02 0.02 0.02 0.02 0.02 0.02 0.02 0.03 0.04 0.05 0.05 0.04 0.04 0.04 0.04 0.04 0.03 0.03 0.04 0.04 0.04 0.04 0.05 0.07 0.08 0.07 0.06 0.06 0.07 0.06 0.06 0.07
0.00 0.00 0.00 0.00 0.00 0.00 0.00 0.00 0.00 0.00 0.00 0.01 0.02 0.03 0.03 0.03 0.02 0.01 0.02 0.02 0.04 0.05 0.05 0.04 0.03 0.03 0.04 0.04 0.03 0.04 0.05 0.05 0.04 0.04 0.05 0.06 0.07 0.06 0.05 0.05 0.06 0.07 0.07
0.00 0.00 0.00 0.00 0.00 0.00 0.00 0.00 0.00 0.00 0.00 0.01 0.01 0.02 0.02 0.02 0.02 0.02 0.02 0.02 0.03 0.04 0.04 0.04 0.03 0.03 0.04 0.04 0.04 0.04 0.05 0.05 0.05 0.05 0.05 0.05 0.06 0.07 0.06 0.06 0.06 0.06 0.07
0.00 0.00 0.00 0.00 0.00 0.00 0.01 0.01 0.00 0.01 0.01 0.01 0.01 0.01 0.01 0.02 0.02 0.03 0.03 0.03 0.03 0.03 0.03 0.04 0.03 0.04 0.04 0.04 0.03 0.03 0.04 0.04 0.04 0.04 0.04 0.05 0.05 0.06 0.07 0.07 0.07 0.07 0.07
0.00 0.00 0.00 0.00 0.00 0.01 0.01 0.01 0.01 0.01 0.01 0.01 0.01 0.01 0.01 0.02 0.02 0.02 0.03 0.03 0.03 0.03 0.03 0.03 0.03 0.03 0.04 0.04 0.03 0.03 0.03 0.03 0.04 0.04 0.04 0.04 0.04 0.04 0.05 0.07 0.08 0.08 0.07
0.00 0.00 0.00 0.00 0.01 0.01 0.02 0.02 0.02 0.02 0.02 0.02 0.01 0.01 0.01 0.02 0.02 0.02 0.02 0.03 0.03 0.03 0.02 0.02 0.02 0.03 0.03 0.03 0.03 0.03 0.03 0.03 0.04 0.04 0.04 0.04 0.04 0.04 0.05 0.06 0.08 0.08 0.08
0.00 0.00 0.00 0.01 0.01 0.01 0.02 0.02 0.02 0.02 0.02 0.02 0.02 0.02 0.02 0.02 0.02 0.02 0.02 0.02 0.02 0.03 0.03 0.02 0.02 0.02 0.02 0.03 0.03 0.03 0.04 0.03 0.03 0.04 0.04 0.05 0.05 0.06 0.07 0.07 0.07 0.08 0.09
0.00 0.00 0.01 0.01 0.01 0.01 0.01 0.02 0.02 0.02 0.02 0.02 0.02 0.02 0.02 0.02 0.02 0.02 0.02 0.02 0.02 0.02 0.02 0.02 0.02 0.02 0.02 0.02 0.03 0.03 0.03 0.03 0.03 0.03 0.04 0.05 0.05 0.06 0.07 0.08 0.08 0.09 0.09
0.00 0.01 0.01 0.01 0.01 0.01 0.01 0.01 0.01 0.02 0.02 0.02 0.02 0.02 0.02 0.02 0.02 0.02 0.02 0.03 0.02 0.02 0.02 0.02 0.02 0.02 0.02 0.03 0.03 0.03 0.04 0.03 0.03 0.03 0.04 0.05 0.06 0.06 0.07 0.07 0.08 0.08 0.10
0.01 0.01 0.01 0.01 0.01 0.01 0.01 0.02 0.02 0.02 0.02 0.02 0.02 0.02 0.01 0.02 0.02 0.02 0.02 0.02 0.02 0.02 0.03 0.03 0.03 0.02 0.02 0.02 0.03 0.04 0.04 0.03 0.03 0.04 0.04 0.05 0.05 0.06 0.07 0.07 0.07 0.07 0.09
0.01 0.01 0.01 0.01 0.01 0.01 0.01 0.01 0.01 0.01 0.02 0.02 0.02 0.02 0.02 0.01 0.02 0.02 0.03 0.03 0.03 0.02 0.02 0.02 0.02 0.02 0.02 0.02 0.03 0.04 0.04 0.04 0.04 0.04 0.04 0.05 0.06 0.07 0.07 0.07 0.07 0.06 0.06
0.01 0.01 0.01 0.01 0.01 0.01 0.01 0.01 0.01 0.01 0.01 0.01 0.01 0.01 0.01 0.01 0.01 0.02 0.03 0.04 0.04 0.04 0.04 0.03 0.03 0.03 0.03 0.03 0.03 0.03 0.04 0.05 0.05 0.05 0.06 0.07 0.07 0.08 0.08 0.07 0.06 0.05 0.05
0.01 0.01 0.01 0.01 0.02 0.02 0.01 0.01 0.01 0.01 0.01 0.01 0.01 0.01 0.01 0.01 0.02 0.02 0.02 0.03 0.04 0.04 0.04 0.04 0.04 0.03 0.04 0.03 0.04 0.04 0.05 0.06 0.06 0.07 0.07 0.06 0.06 0.06 0.06 0.05 0.05 0.04 0.04
MSLP
1029.23 1029.50 1029.51 1029.29 1028.88 1028.39 1027.86 1027.37 1026.93 1026.52 1026.10 1025.60 1024.97 1024.19 1023.24 1022.14 1020.96 1019.77 1018.63 1017.62 1016.79 1016.15 1015.72 1015.49 1015.46 1015.59 1015.88 1016.32 1016.88 1017.55 1018.30 1019.08 1019.86 1020.58 1021.20 1021.70 1022.05 1022.26 1022.38 1022.45 1022.52 1022.65 1022.86
1030.06 1030.37 1030.38 1030.10 1029.63 1029.04 1028.44 1027.90 1027.44 1027.06 1026.72 1026.36 1025.89 1025.27 1024.47 1023.51 1022.40 1021.23 1020.06 1018.96 1017.97 1017.14 1016.48 1016.01 1015.70 1015.57 1015.60 1015.80 1016.17 1016.69 1017.35 1018.12 1018.93 1019.75 1020.50 1021.14 1021.64 1021.99 1022.21 1022.33 1022.42 1022.53 1022.71
1030.78 1031.15 1031.18 1030.90 1030.39 1029.75 1029.08 1028.47 1027.99 1027.62 1027.33 1027.06 1026.72 1026.24 1025.60 1024.77 1023.79 1022.69 1021.55 1020.42 1019.36 1018.40 1017.56 1016.86 1016.29 1015.86 1015.58 1015.48 1015.55 1015.83 1016.30 1016.94 1017.72 1018.56 1019.41 1020.19 1020.85 1021.37 1021.74 1021.98 1022.15 1022.30 1022.49
1031.23 1031.68 1031.78 1031.54 1031.04 1030.38 1029.68 1029.03 1028.52 1028.14 1027.87 1027.65 1027.40 1027.04 1026.53 1025.84 1024.99 1024.01 1022.95 1021.87 1020.81 1019.79 1018.84 1017.96 1017.16 1016.45 1015.84 1015.39 1015.11 1015.06 1015.25 1015.68 1016.32 1017.12 1018.00 1018.88 1019.70 1020.41 1020.96 1021.37 1021.67 1021.91 1022.14
1031.32 1031.87 1032.06 1031.90 1031.46 1030.84 1030.15 1029.50 1028.97 1028.58 1028.31 1028.10 1027.90 1027.62 1027.21 1026.65 1025.93 1025.09 1024.16 1023.18 1022.18 1021.19 1020.20 1019.21 1018.23 1017.27 1016.36 1015.55 1014.90 1014.47 1014.31 1014.45 1014.88 1015.55 1016.40 1017.34 1018.28 1019.15 1019.90 1020.50 1020.96 1021.32 1021.63
1031.05 1031.69 1031.99 1031.95 1031.62 1031.08 1030.45 1029.83 1029.30 1028.90 1028.62 1028.42 1028.22 1027.98 1027.64 1027.17 1026.57 1025.87 1025.08 1024.25 1023.37 1022.46 1021.50 1020.49 1019.40 1018.26 1017.09 1015.96 1014.95 1014.13 1013.60 1013.40 1013.55 1014.03 1014.77 1015.70 1016.71 1017.71 1018.62 1019.40 1020.04 1020.54 1020.95
1030.49 1031.21 1031.62 1031.71 1031.51 1031.09 1030.56 1030.01 1029.52 1029.12 1028.83 1028.60 1028.39 1028.15 1027.83 1027.42 1026.92 1026.33 1025.69 1025.01 1024.28 1023.50 1022.63 1021.65 1020.53 1019.28 1017.93 1016.55 1015.23 1014.06 1013.17 1012.62 1012.46 1012.70 1013.27 1014.11 1015.12 1016.19 1017.22 1018.15 1018.94 1019.59 1020.11
1029.81 1030.57 1031.07 1031.28 1031.22 1030.94 1030.53 1030.07 1029.63 1029.26 1028.95 1028.69 1028.44 1028.17 1027.84 1027.45 1026.99 1026.50 1025.98 1025.43 1024.86 1024.22 1023.48 1022.58 1021.50 1020.22 1018.78 1017.24 1015.68 1014.24 1013.04 1012.17 1011.70 1011.66 1012.02 1012.71 1013.64 1014.71 1015.80 1016.83 1017.74 1018.51 1019.15
1029.18 1029.93 1030.48 1030.78 1030.84 1030.70 1030.41 1030.06 1029.69 1029.34 1029.02 1028.73 1028.42 1028.09 1027.72 1027.30 1026.86 1026.41 1025.96 1025.52 1025.07 1024.57 1023.97 1023.19 1022.20 1020.97 1019.52 1017.91 1016.24 1014.62 1013.18 1012.05 1011.30 1010.99 1011.10 1011.60 1012.39 1013.37 1014.44 1015.50 1016.48 1017.35 1018.09
1028.75 1029.45 1030.00 1030.35 1030.50 1030.46 1030.28 1030.02 1029.71 1029.40 1029.07 1028.74 1028.37 1027.97 1027.53 1027.05 1026.57 1026.11 1025.69 1025.31 1024.94 1024.55 1024.07 1023.42 1022.55 1021.43 1020.06 1018.49 1016.79 1015.10 1013.53 1012.22 1011.25 1010.70 1010.56 1010.82 1011.42 1012.25 1013.22 1014.25 1015.24 1016.15 1016.97
1028.61 1029.22 1029.72 1030.07 1030.26 1030.29 1030.19 1030.00 1029.75 1029.45 1029.12 1028.74 1028.31 1027.83 1027.30 1026.74 1026.19 1025.68 1025.23 1024.85 1024.52 1024.19 1023.79 1023.26 1022.53 1021.56 1020.33 1018.87 1017.27 1015.61 1014.02 1012.62 1011.51 1010.76 1010.40 1010.42 1010.78 1011.40 1012.21 1013.12 1014.06 1014.97 1015.82
1028.78 1029.26 1029.68 1029.99 1030.17 1030.22 1030.16 1030.02 1029.80 1029.51 1029.16 1028.74 1028.25 1027.68 1027.06 1026.40 1025.76 1025.17 1024.66 1024.23 1023.88 1023.57 1023.23 1022.79 1022.19 1021.37 1020.32 1019.05 1017.61 1016.08 1014.57 1013.17 1012.00 1011.11 1010.55 1010.34 1010.44 1010.82 1011.41 1012.15 1012.96 1013.82 1014.66
1029.17 1029.53 1029.84 1030.08 1030.21 1030.25 1030.20 1030.06 1029.85 1029.57 1029.19 1028.73 1028.17 1027.53 1026.82 1026.07 1025.33 1024.64 1024.04 1023.54 1023.13 1022.79 1022.46 1022.09 1021.60 1020.94 1020.09 1019.03 1017.81 1016.47 1015.11 1013.79 1012.62 1011.66 1010.96 1010.53 1010.38 1010.49 1010.83 1011.34 1011.98 1012.72 1013.52
1029.68 1029.93 1030.13 1030.28 1030.35 1030.35 1030.28 1030.13 1029.91 1029.60 1029.20 1028.69 1028.08 1027.37 1026.58 1025.75 1024.92 1024.14 1023.44 1022.85 1022.36 1021.97 1021.62 1021.28 1020.87 1020.34 1019.68 1018.84 1017.86 1016.75 1015.58 1014.41 1013.30 1012.32 1011.51 1010.90 1010.52 1010.37 1010.43 1010.69 1011.12 1011.70 1012.38
1030.21 1030.35 1030.46 1030.53 1030.53 1030.48 1030.37 1030.19 1029.94 1029.60 1029.15 1028.61 1027.95 1027.18 1026.34 1025.45 1024.55 1023.69 1022.90 1022.22 1021.66 1021.19 1020.80 1020.45 1020.09 1019.67 1019.16 1018.53 1017.77 1016.90 1015.95 1014.94 1013.94 1012.98 1012.11 1011.37 1010.79 1010.39 1010.19 1010.18 1010.38 1010.75 1011.29
1030.65 1030.72 1030.76 1030.75 1030.70 1030.59 1030.43 1030.21 1029.92 1029.53 1029.05 1028.46 1027.76 1026.96 1026.08 1025.15 1024.21 1023.29 1022.45 1021.70 1021.05 1020.51 1020.07 1019.69 1019.34 1018.99 1018.59 1018.11 1017.55 1016.90 1016.14 1015.31 1014.43 1013.53 1012.65 1011.82 1011.08 1010.48 1010.03 1009.78 1009.74 1009.90 1010.26
1030.94 1030.97 1030.96 1030.90 1030.80 1030.65 1030.44 1030.18 1029.83 1029.40 1028.86 1028.23 1027.49 1026.66 1025.76 1024.82 1023.86 1022.93 1022.05 1021.25 1020.55 1019.94 1019.44 1019.01 1018.64 1018.31 1017.97 1017.61 1017.19 1016.70 1016.12 1015.45 1014.70 1013.88 1013.02 1012.15 1011.31 1010.55 1009.92 1009.46 1009.19 1009.14 1009.31
1031.06 1031.07 1031.03 1030.95 1030.81 1030.62 1030.37 1030.05 1029.65 1029.16 1028.57 1027.89 1027.11 1026.27 1025.36 1024.42 1023.47 1022.55 1021.67 1020.85 1020.10 1019.45 1018.88 1018.40 1017.98 1017.63 1017.30 1016.98 1016.65 1016.27 1015.83 1015.29 1014.66 1013.94 1013.14 1012.28 1011.40 1010.56 1009.80 1009.17 1008.73 1008.49 1008.48
1031.05 1031.04 1030.98 1030.87 1030.70 1030.48 1030.18 1029.80 1029.34 1028.78 1028.13 1027.40 1026.59 1025.73 1024.82 1023.90 1022.98 1022.08 1021.22 1020.41 1019.65 1018.96 1018.34 1017.79 1017.31 1016.90 1016.55 1016.23 1015.92 1015.61 1015.25 1014.82 1014.30 1013.68 1012.96 1012.16 1011.30 1010.44 1009.62 1008.90 1008.33 1007.95 1007.78
1030.91 1030.89 1030.81 1030.67 1030.47 1030.20 1029.85 1029.42 1028.88 1028.25 1027.53 1026.74 1025.89 1025.01 1024.11 1023.22 1022.33 1021.47 1020.65 1019.86 1019.10 1018.39 1017.72 1017.12 1016.57 1016.09 1015.68 1015.32 1015.01 1014.71 1014.41 1014.05 1013.63 1013.11 1012.49 1011.78 1010.99 1010.17 1009.36 1008.62 1007.98 1007.51 1007.22
1030.70 1030.64 1030.52 1030.35 1030.10 1029.78 1029.37 1028.86 1028.25 1027.54 1026.75 1025.90 1025.01 1024.10 1023.21 1022.33 1021.49 1020.68 1019.89 1019.13 1018.40 1017.68 1016.98 1016.33 1015.72 1015.17 1014.69 1014.27 1013.93 1013.62 1013.34 1013.04 1012.70 1012.28 1011.78 1011.18 1010.50 1009.76 1009.02 1008.30 1007.66 1007.14 1006.78
1030.42 1030.31 1030.14 1029.91 1029.61 1029.22 1028.73 1028.14 1027.44 1026.65 1025.79 1024.87 1023.94 1023.01 1022.11 1021.26 1020.45 1019.68 1018.94 1018.22 1017.50 1016.79 1016.08 1015.39 1014.73 1014.12 1013.58 1013.11 1012.73 1012.40 1012.13 1011.87 1011.59 1011.27 1010.87 1010.40 1009.85 1009.23 1008.57 1007.92 1007.32 1006.80 1006.41
1030.10 1029.91 1029.67 1029.37 1028.99 1028.52 1027.95 1027.27 1026.48 1025.61 1024.67 1023.69 1022.71 1021.76 1020.86 1020.02 1019.23 1018.50 1017.80 1017.11 1016.42 1015.73 1015.02 1014.31 1013.62 1012.97 1012.39 1011.88 1011.46 1011.12 1010.85 1010.62 1010.40 1010.16 1009.87 1009.51 1009.08 1008.58 1008.04 1007.48 1006.93 1006.44 1006.05
1029.75 1029.47 1029.14 1028.74 1028.27 1027.71 1027.04 1026.27 1025.40 1024.44 1023.44 1022.41 1021.40 1020.42 1019.52 1018.68 1017.91 1017.20 1016.53 1015.87 1015.21 1014.53 1013.83 1013.12 1012.42 1011.75 1011.15 1010.62 1010.18 1009.83 1009.57 1009.36 1009.19 1009.01 1008.81 1008.55 1008.23 1007.84 1007.40 1006.93 1006.46 1006.01 1005.63
1029.36 1028.99 1028.56 1028.07 1027.49 1026.82 1026.06 1025.20 1024.25 1023.23 1022.17 1021.11 1020.06 1019.08 1018.16 1017.33 1016.57 1015.87 1015.21 1014.56 1013.91 1013.24 1012.56 1011.85 1011.16 1010.49 1009.88 1009.35 1008.91 1008.57 1008.31 1008.13 1007.99 1007.86 1007.72 1007.54 1007.31 1007.01 1006.66 1006.27 1005.86 1005.46 1005.10
1028.96 1028.49 1027.96 1027.36 1026.68 1025.92 1025.06 1024.12 1023.10 1022.03 1020.94 1019.85 1018.80 1017.81 1016.90 1016.06 1015.30 1014.60 1013.93 1013.28 1012.62 1011.95 1011.26 1010.56 1009.86 1009.21 1008.60 1008.08 1007.64 1007.31 1007.07 1006.90 1006.78 1006.69 1006.60 1006.47 1006.30 1006.07 1005.79 1005.46 1005.11 1004.76 1004.43
Thickness
5515 5514 5512 5512 5513 5514 5515 5518 5519 5522 5524 5527 5530 5533 5536 5538 5541 5544 5547 5550 5553 5556 5558 5561 5563 5566 5569 5570 5573 5575 5576 5575 5577 5576 5575 5575 5577 5579 5581 5582 5584 5585 5586
5503 5501 5500 5500 5500 5501 5503 5506 5507 5510 5513 5516 5519 5522 5524 5527 5530 5532 5536 5538 5542 5545 5548 5551 5553 5555 5558 5560 5562 5564 5566 5565 5567 5568 5566 5564 5564 5567 5569 5571 5573 5574 5576
5490 5488 5487 5486 5487 5488 5490 5494 5496 5498 5501 5504 5507 5510 5512 5515 5518 5520 5524 5527 5530 5534 5537 5540 5542 5545 5547 5550 5552 5555 5557 5556 5557 5559 5559 5557 5557 5556 5556 5559 5562 5563 5565
5478 5476 5475 5474 5474 5476 5478 5481 5483 5486 5489 5491 5494 5497 5500 5502 5506 5509 5512 5515 5518 5522 5525 5528 5532 5535 5537 5540 5542 5545 5547 5548 5547 5548 5550 5551 5552 5548 5545 5546 5549 5552 5554
5465 5464 5463 5462 5462 5463 5465 5467 5470 5472 5475 5479 5481 5484 5487 5490 5493 5497 5500 5503 5506 5509 5513 5516 5519 5523 5526 5529 5531 5534 5537 5538 5538 5539 5539 5539 5540 5541 5540 5537 5536 5539 5542
5453 5451 5450 5449 5450 5450 5452 5453 5456 5459 5461 5464 5468 5471 5474 5478 5481 5484 5488 5491 5493 5496 5500 5503 5507 5511 5514 5517 5520 5523 5525 5527 5528 5528 5529 5529 5529 5529 5530 5530 5527 5527 5530
5440 5438 5436 5435 5436 5437 5438 5440 5441 5444 5446 5450 5454 5458 5461 5465 5468 5472 5476 5479 5481 5484 5487 5491 5494 5497 5501 5504 5507 5510 5513 5515 5516 5517 5519 5520 5521 5521 5521 5521 5518 5517 5518
5428 5426 5425 5424 5424 5424 5425 5426 5428 5429 5432 5435 5439 5443 5447 5451 5455 5459 5462 5466 5469 5472 5474 5478 5481 5484 5487 5491 5495 5497 5500 5501 5503 5505 5507 5508 5509 5510 5511 5511 5509 5506 5506
5415 5413 5412 5412 5411 5411 5412 5412 5414 5416 5418 5421 5424 5428 5432 5436 5440 5444 5448 5452 5456 5459 5461 5465 5468 5471 5474 5478 5481 5484 5487 5488 5490 5492 5493 5494 5496 5497 5498 5499 5500 5500 5498
5403 5401 5400 5399 5398 5399 5399 5399 5400 5401 5403 5406 5409 5413 5417 5421 5425 5430 5434 5438 5442 5445 5448 5452 5454 5457 5461 5464 5467 5470 5473 5475 5477 5478 5480 5481 5482 5484 5485 5486 5488 5490 5492
5391 5389 5387 5386 5385 5385 5385 5386 5387 5388 5389 5392 5395 5398 5402 5406 5411 5415 5420 5424 5428 5431 5435 5438 5441 5444 5447 5450 5453 5456 5458 5461 5464 5465 5467 5469 5470 5471 5472 5474 5475 5477 5479
5380 5378 5375 5374 5373 5373 5373 5373 5374 5374 5376 5378 5381 5384 5387 5391 5395 5400 5404 5409 5413 5416 5420 5424 5427 5430 5432 5436 5440 5442 5445 5447 5449 5452 5454 5456 5458 5459 5460 5461 5463 5465 5467
5368 5366 5363 5362 5361 5360 5360 5360 5361 5361 5363 5365 5367 5370 5373 5377 5381 5385 5389 5393 5398 5402 5405 5409 5413 5416 5418 5422 5426 5428 5431 5433 5435 5437 5440 5443 5445 5446 5448 5449 5451 5453 5455
5357 5354 5351 5349 5349 5348 5348 5348 5349 5349 5350 5352 5353 5356 5360 5363 5367 5371 5374 5378 5383 5386 5390 5393 5397 5400 5403 5406 5410 5412 5415 5418 5421 5424 5426 5430 5433 5434 5436 5437 5438 5440 5441
5346 5343 5340 5338 5337 5336 5336 5336 5336 5337 5337 5339 5340 5343 5346 5349 5353 5357 5360 5363 5366 5371 5375 5378 5382 5385 5388 5391 5394 5397 5400 5403 5407 5409 5412 5416 5419 5421 5423 5425 5427 5428 5429
5335 5332 5329 5328 5326 5325 5324 5324 5324 5325 5325 5326 5328 5330 5332 5336 5339 5342 5345 5348 5351 5355 5359 5363 5366 5370 5373 5377 5380 5382 5385 5388 5392 5395 5399 5402 5404 5408 5410 5413 5415 5417 5418
5322 5320 5318 5317 5316 5314 5313 5312 5312 5312 5313 5314 5316 5317 5319 5322 5325 5328 5331 5334 5337 5341 5344 5347 5350 5354 5358 5362 5365 5368 5370 5373 5377 5380 5384 5387 5391 5394 5396 5399 5401 5404 5407
5310 5309 5307 5305 5304 5302 5301 5300 5300 5300 5300 5301 5302 5304 5306 5308 5311 5313 5316 5319 5322 5325 5329 5333 5336 5340 5343 5347 5350 5353 5355 5359 5362 5366 5369 5372 5376 5379 5382 5385 5387 5390 5394
5298 5298 5296 5294 5292 5291 5289 5287 5287 5287 5287 5288 5289 5290 5291 5294 5296 5299 5302 5304 5307 5310 5313 5318 5322 5326 5329 5332 5335 5338 5341 5344 5348 5352 5355 5359 5363 5367 5369 5371 5374 5377 5380
5288 5286 5284 5282 5279 5278 5276 5275 5274 5274 5274 5275 5275 5276 5278 5281 5283 5285 5288 5291 5293 5296 5299 5304 5308 5311 5315 5318 5321 5323 5326 5330 5334 5338 5342 5346 5350 5352 5355 5357 5360 5363 5366
5276 5274 5272 5269 5267 5265 5264 5263 5262 5262 5262 5263 5264 5265 5266 5268 5270 5273 5276 5278 5281 5284 5286 5291 5295 5298 5301 5305 5308 5310 5312 5315 5319 5323 5328 5332 5336 5339 5341 5344 5347 5351 5353
5263 5261 5259 5257 5256 5254 5252 5252 5251 5251 5251 5251 5253 5254 5255 5256 5259 5261 5263 5265 5267 5270 5273 5277 5281 5285 5288 5291 5294 5297 5300 5303 5306 5310 5314 5319 5323 5326 5329 5332 5335 5336 5338
5252 5250 5247 5246 5245 5243 5241 5241 5241 5241 5241 5241 5242 5243 5244 5246 5247 5249 5251 5253 5254 5257 5260 5264 5268 5272 5275 5278 5282 5285 5288 5291 5294 5298 5302 5306 5309 5312 5315 5319 5321 5322 5323
5241 5239 5236 5235 5233 5232 5231 5230 5231 5231 5231 5232 5232 5233 5234 5235 5236 5238 5240 5241 5243 5245 5249 5251 5255 5258 5262 5265 5268 5271 5274 5278 5281 5285 5289 5292 5296 5299 5302 5305 5307 5309 5311
5230 5228 5225 5224 5222 5221 5220 5221 5220 5220 5220 5221 5222 5223 5224 5225 5226 5227 5228 5230 5232 5234 5237 5239 5241 5244 5249 5254 5257 5259 5263 5266 5269 5272 5275 5278 5282 5285 5289 5292 5294 5296 5297
5219 5217 5215 5213 5212 5211 5210 5210 5210 5210 5210 5211 5212 5212 5213 5214 5215 5216 5217 5219 5221 5224 5227 5230 5232 5235 5238 5242 5246 5250 5253 5256 5258 5260 5263 5266 5269 5272 5276 5280 5282 5283 5284